Winfield, KS

4:12 AM CDT on August 18, 2017 (GMT -0500)
Strother

Weather History for KWLD - July, 2013

Change the Weather History Date:

Saturday, July 20, 2013

  Actual Average Record
Temperature  
Mean Temperature 84 °F -  
Max Temperature 96 °F 91 °F 106 °F (2006)
Min Temperature 72 °F 69 °F 64 °F (2014)
Cooling Degree Days 19    
Growing Degree Days 34 (Base 50)    
Moisture  
Dew Point 70 °F    
Average Humidity 71    
Maximum Humidity 97    
Minimum Humidity 38    
Precipitation  
Precipitation 0.78 in - - ()
Sea Level Pressure  
Sea Level Pressure 29.89 in    
Wind  
Wind Speed 8 mph (South)    
Max Wind Speed 17 mph    
Max Gust Speed 25 mph    
Visibility 9 miles    
Events Rain , Thunderstorm    
Averages and records for this station are not official NWS values.
T = Trace of Precipitation, MM = Missing Value Source: NWS Daily Summary

Daily Weather History Graph

Daily Weather History Graph

Search for Another Location

Airport or City:

Trip Planner

Search our weather history database for the weather conditions in past years. The results will help you decide how hot, cold, wet, or windy it might be!

Date:

Astronomy

Jul. 20, 2013 Rise Set
Actual Time 6:23 AM CDT 8:44 PM CDT
Civil Twilight 5:53 AM CDT 9:14 PM CDT
Nautical Twilight 5:17 AM CDT 9:51 PM CDT
Astronomical Twilight 4:37 AM CDT 10:31 PM CDT
Moon 6:49 PM CDT (7/20) 4:04 AM CDT (7/20)
Length of Visible Light 15h 20m
Length of Day
14h 21m
Waxing Gibbous, 94% of the Moon is Illuminated
Jul 20
Waxing Gibbous
Jul 22
Full
Jul 29
Last Quarter
Aug 6
New
Aug 14
First Quarter

Hourly Weather History & Observations

Time (CDT) Temp. Heat Index Dew Point Humidity Pressure Visibility Wind Dir Wind Speed Gust Speed Precip Events Conditions
12:54 AM 77.0 °F - 66.9 °F 71% 29.91 in 10.0 mi South 3.5 mph - N/A   Clear
1:54 AM 78.1 °F - 68.0 °F 71% 29.91 in 10.0 mi South 6.9 mph - N/A   Clear
2:54 AM 78.1 °F - 69.1 °F 74% 29.91 in 10.0 mi SSW 9.2 mph - N/A   Clear
3:54 AM 75.0 °F - 70.0 °F 84% 29.91 in 10.0 mi SSW 8.1 mph - N/A   Clear
4:54 AM 73.9 °F - 70.0 °F 87% 29.91 in 10.0 mi South 5.8 mph - N/A   Clear
5:54 AM 73.9 °F - 71.1 °F 91% 29.91 in 10.0 mi SSW 3.5 mph - N/A   Overcast
6:54 AM 73.0 °F - 71.1 °F 93% 29.91 in 10.0 mi SSW 5.8 mph - N/A   Clear
7:54 AM 77.0 °F - 72.0 °F 84% 29.91 in 10.0 mi SSW 8.1 mph - N/A   Clear
8:54 AM 81.0 °F 85.2 °F 72.0 °F 74% 29.91 in 10.0 mi WSW 6.9 mph - N/A   Clear
9:54 AM 84.0 °F 89.6 °F 72.0 °F 67% 29.91 in 10.0 mi WSW 6.9 mph - N/A   Clear
10:54 AM 88.0 °F 93.8 °F 71.1 °F 57% 29.91 in 10.0 mi Variable 5.8 mph - N/A   Partly Cloudy
11:54 AM 91.9 °F 97.4 °F 70.0 °F 48% 29.90 in 10.0 mi SW 10.4 mph - N/A   Clear
12:54 PM 93.9 °F 98.6 °F 68.0 °F 43% 29.88 in 10.0 mi SSW 6.9 mph - N/A   Clear
1:54 PM 93.9 °F 98.6 °F 68.0 °F 43% 29.86 in 10.0 mi SSW 10.4 mph 17.3 mph N/A   Partly Cloudy
2:54 PM 95.0 °F 99.0 °F 66.9 °F 40% 29.84 in 10.0 mi South 12.7 mph 21.9 mph N/A   Clear
3:54 PM 95.0 °F 99.0 °F 66.9 °F 40% 29.81 in 10.0 mi South 11.5 mph 23.0 mph N/A   Clear
4:54 PM 95.0 °F 97.9 °F 66.0 °F 38% 29.81 in 10.0 mi South 13.8 mph 21.9 mph N/A   Clear
5:54 PM 93.0 °F 95.9 °F 66.0 °F 41% 29.80 in 10.0 mi SSW 17.3 mph 21.9 mph N/A   Scattered Clouds
6:54 PM 90.0 °F 92.8 °F 66.9 °F 46% 29.80 in 10.0 mi SSW 8.1 mph - N/A   Clear
7:54 PM 89.1 °F 92.9 °F 68.0 °F 50% 29.82 in 10.0 mi NW 11.5 mph 16.1 mph N/A   Partly Cloudy
8:54 PM 79.0 °F - 69.1 °F 72% 29.85 in 10.0 mi NNE 16.1 mph 24.2 mph N/A   Mostly Cloudy
9:10 PM 78.8 °F - 69.8 °F 74% 29.89 in 10.0 mi NNE 16.1 mph - 0.00 in Rain , Thunderstorm Light Rain
9:41 PM 73.4 °F - 71.6 °F 94% 29.98 in 1.8 mi SW 5.8 mph 23.0 mph 0.23 in Rain , Thunderstorm Heavy Thunderstorms and Rain
9:47 PM 73.4 °F - 71.6 °F 94% 29.96 in 0.8 mi ENE 8.1 mph - 0.57 in Rain , Thunderstorm Heavy Thunderstorms and Rain
9:54 PM 73.0 °F - 72.0 °F 96% 29.91 in 1.2 mi ENE 8.1 mph - 0.63 in Rain , Thunderstorm Thunderstorms and Rain
9:58 PM 73.4 °F - 71.6 °F 94% 29.95 in 4.0 mi East 9.2 mph - 0.01 in Rain , Thunderstorm Thunderstorms and Rain
10:08 PM 73.4 °F - 71.6 °F 94% 29.95 in 9.0 mi SE 11.5 mph - 0.01 in Rain , Thunderstorm Light Rain
10:54 PM 73.0 °F - 72.0 °F 96% 29.89 in 7.0 mi NE 11.5 mph - 0.08 in Rain , Thunderstorm Light Rain
11:54 PM 72.0 °F - 71.1 °F 97% 29.88 in 9.0 mi ENE 12.7 mph 25.3 mph 0.07 in Rain , Thunderstorm Light Thunderstorms and Rain